Regional Weather Roundup
Issued by NWS Cleveland, OH

Home | Current Version | Previous Version | Text Only | Print | Product List | Glossary On
Versions: 1 2 3 4 5 6 7 8 9 10 11 12 13 14 15 16 17 18 19 20 21 22 23 24 25 26 27 28 29 30 31 32 33 34 35 36 37 38 39 40 41 42 43 44 45 46 47 48 49 50
000
ASUS41 KCLE 241512
RWRCLE
OHIO REGIONAL WEATHER ROUNDUP
NATIONAL WEATHER SERVICE WILMINGTON, OH
1000 AM EST FRI NOV 24 2017

NOTE: "FAIR" INDICATES FEW OR NO CLOUDS BELOW 12,000 FEET WITH NO
SIGNIFICANT WEATHER AND/OR OBSTRUCTIONS TO VISIBILITY.

OHZ001>008-015>018-024>027-034-035-043-044-241600-
   NORTHWEST OHIO

CITY           SKY/WX    TMP DP  RH WIND       PRES   REMARKS
DEFIANCE       FAIR      38  27  64 S14       29.87F
FINDLAY        FAIR      41  28  60 S12       29.90F
TOLEDO EXPRESS FAIR      40  27  59 SW12G21   29.87F
TOLEDO EXEC    FAIR      40  28  62 S9        29.89F
LIMA           FAIR      40  28  62 S10       29.90F
$$

OHZ009>014-019>023-028>033-038-089-241600-
   NORTHEAST OHIO

CITY           SKY/WX    TMP DP  RH WIND       PRES   REMARKS
CLE-HOPKINS    FAIR      42  26  53 S15       29.94F
CLE-LAKEFRONT  FAIR      41  25  53 S9        29.91F
CUY CO. ARPT   SUNNY     43  25  49 S15G21    29.92F
LORAIN-ELYRIA  FAIR      39  24  55 S12       29.92F
ASHTABULA      FAIR      39  26  59 SW13      29.94S
AKRON-CANTON   FAIR      39  25  57 SW14      29.95F
WOOSTER        FAIR      37  26  64 SW9       29.95F
MANSFIELD      FAIR      40  26  57 S16       29.92F
YOUNGSTOWN     FAIR      39  24  55 S9        29.94F
$$

OHZ042-051>053-060>062-070>072-077>081-241600-
  SOUTHWEST OHIO

CITY           SKY/WX    TMP DP  RH WIND       PRES   REMARKS
CINC-COVINGTON FAIR      42  27  55 S9        29.97S
CINC-LUNKEN    FAIR      39  32  76 S5        30.00F
HAMILTON       FAIR      40  30  67 E3        29.98F
DAYTON         FAIR      40  27  59 S9        29.95F
WRIGHT-PAT AFB MOSUNNY   40  27  58 S7        29.95F
DAYTON GENERAL FAIR      40  27  59 S10       29.95F
WILMINGTON     FAIR      41  29  62 SW12      29.97S
$$

OHZ036-037-039>041-045>050-054>059-063>069-073>076-082>088-241600-
  CENTRAL AND SOUTHEAST OHIO

CITY           SKY/WX    TMP DP  RH WIND       PRES   REMARKS
COLUMBUS       FAIR      39  27  62 S6        29.98S
OSU AIRPORT    FAIR      39  28  64 S9        29.97F
BOLTON FIELD   SUNNY     37  28  70 SW5       29.99S
RICKENBACK AFB FAIR      37  28  70 S3        29.99S
NEWARK         FAIR      39  28  64 S5        29.98S
MARION         FAIR      39  27  62 S15       29.94F
LANCASTER      FAIR      39  29  67 SE3       29.99S
ZANESVILLE     FAIR      38  26  62 S7        29.99F
NEW PHILLY     FAIR      38  27  64 SE7       29.99F
$$




USA.gov is the U.S. government's official web portal to all federal, state and local government web resources and services.